User: anonymous   Login
Location: Unspecified
(0.0000°N, 0.0000°E)
Time: 15:18:49
(UTC+00:00)
Language:

Gonets-D1 - Orbit

View from above orbital plane
View from above orbital plane
View from above satellite
View from above satellite

Ground track
Ground track

The orbit data is extracted from the following two-line orbital elements,

1 24725U 97006A   18260.56886147 +.00000016 +00000-0 +31772-4 0  9995
2 24725 082.6046 272.8910 0010231 048.2809 311.9155 12.60668800993299
Epoch (UTC): 17 September 2018 13:39:09
Eccentricity: 0.0010231
inclination: 82.6046°
perigee height: 1412 km
apogee height: 1428 km
right ascension of ascending node: 272.8910°
argument of perigee: 48.2809°
revolutions per day: 12.60668800
mean anomaly at epoch: 311.9155°
orbit number at epoch: 99329

The dashed part of the orbit path shows where the satellite is in the earth's shadow,  

DLR